Location: Newark
(22.0000°S, 43.0000°W)
Time: 16:28:00
(UTC+00:00)

Hubble Space Telescope - Visible Passes

Search period start: 26 September 2020 00:00
Search period end: 06 October 2020 00:00
Orbit: 536 x 540 km, 28.5° (Epoch: 25 September)

Date Brightness Start Highest point End Pass type
(mag) Time Alt. Az. Time Alt. Az. Time Alt. Az.
26 Sep 2.0 21:14:54 10° WSW 21:18:41 33° S 21:22:29 10° ESE visible
26 Sep 2.8 22:56:07 10° WSW 22:58:09 26° SW 22:58:09 26° SW visible
27 Sep 2.1 22:45:24 10° WSW 22:48:05 37° SW 22:48:05 37° SW visible
28 Sep 1.3 22:34:40 10° WSW 22:38:03 56° WSW 22:38:03 56° WSW visible
29 Sep 0.7 22:23:58 10° WSW 22:28:03 80° NW 22:28:03 80° NW visible
30 Sep 0.9 22:13:17 10° WSW 22:17:26 63° NNW 22:18:05 53° NNE visible
01 Oct 1.4 22:02:39 10° W 22:06:41 47° NNW 22:08:10 32° NNE visible
02 Oct 1.9 21:52:05 10° W 21:55:55 36° NNW 21:58:18 19° NNE visible
03 Oct 2.4 21:41:36 10° W 21:45:09 27° NNW 21:48:28 11° NNE visible
04 Oct 2.9 21:31:13 10° WNW 21:34:22 21° NNW 21:37:31 10° NNE visible
05 Oct 3.3 21:21:04 10° WNW 21:23:35 16° NNW 21:26:06 10° N visible
